sat.trackr.live / text

‹ back to catalog

STARLINK-31321

NORAD 58887 · 2024-020M

PAYLOAD ACTIVE UNKNOWN

§ Identity

Operator
Country
US
Launch date
2024-01-29
Launch site
AFWTR
Launch vehicle
Mass (kg)
RCS (m²)

Purposes: comms

External: N2YO · Heavens-Above · Gunter

§ Orbital elements

Epoch: 2026-09-20T21:58:48.122400Z

Period
93.85 min
Inclination
53.1574°
Eccentricity
0.0001634
Mean motion
15.34375280 rev/d
Perigee alt
461.7 km
Apogee alt
463.9 km
Semi-major
6,840.9 km
B*
-5.2292e-5
RAAN
131.8884°
Arg perigee
84.6377°
Mean anomaly
275.4812°
Rev number
14,917

§ Raw data

STARLINK-313211 58887U 24020M   26263.91583475 -.00002141  00000+0 -52292-4 0  99982 58887  53.1574 131.8884 0001634  84.6377 275.4812 15.34375280149174

JSON: /api/v1/satellites/58887 · /tle

For live sub-satellite position, see the globe view (requires WebGL).

§ Visibility from observer

Set your observer location to see the next 7 days of passes ≥ 10°. The values pass through the URL so the page stays shareable.

No JS? Fill the form by hand. The geolocation button needs JavaScript.